Overview Statistics Trail Chart Weather Telemetry Raw packets
 

This is the latest recevied weather packets stored in our database for station/object K7FLA. If no packets are shown the sender has not sent any weather packets the latest 10 day(s).

<< 105 106 107 108 109 110 111 >>
Time Temp. Humidity Pressure Rain* Wind** Luminosity Snow
1787869263 36.11° C 26% 1094.2 hPa 0 mm - 175 W/m² -
1787868961 36.11° C 27% 1094.3 hPa 0 mm - 174 W/m² -
1787868656 36.67° C 26% 1094.3 hPa 0 mm - 177 W/m² -
1787868353 36.67° C 26% 1094.3 hPa 0 mm - 176 W/m² -
1787868049 36.67° C 26% 1094.6 hPa 0 mm - 186 W/m² -
1787867743 37.22° C 25% 1094.3 hPa 0 mm - 197 W/m² -
1787867439 37.22° C 24% 1094.8 hPa 0 mm - 195 W/m² -
1787867134 37.22° C 25% 1094.7 hPa 0 mm - 199 W/m² -
1787866829 37.22° C 25% 1094.8 hPa 0 mm - 202 W/m² -
1787866524 37.78° C 25% 1094.9 hPa 0 mm - 200 W/m² -
1787866222 37.78° C 24% 1094.8 hPa 0 mm - 207 W/m² -
1787865918 38.33° C 24% 1094.7 hPa 0 mm - 226 W/m² -
1787865613 38.33° C 23% 1094.8 hPa 0 mm - 269 W/m² -
1787865313 38.33° C 24% 1094.9 hPa 0 mm - 333 W/m² -
1787865009 38.33° C 21% 1094.7 hPa 0 mm - 342 W/m² -
1787864704 38.33° C 22% 1095 hPa 0 mm - 398 W/m² -
1787864403 38.33° C 21% 1094.9 hPa 0 mm - 387 W/m² -
1787864099 38.33° C 22% 1095 hPa 0 mm - 423 W/m² -
1787863796 38.33° C 21% 1095.1 hPa 0 mm - 390 W/m² -
1787863495 38.33° C 21% 1095.2 hPa 0 mm - 337 W/m² -
1787863193 38.89° C 21% 1095.2 hPa 0 mm - 306 W/m² -
1787862887 38.89° C 21% 1095.3 hPa 0 mm - 320 W/m² -
1787862586 38.89° C 21% 1095.4 hPa 0 mm - 342 W/m² -
1787862282 39.44° C 20% 1095.2 hPa 0 mm - 384 W/m² -
1787861983 40° C 22% 1095.3 hPa 0 mm - 401 W/m² -

* Rain latest hour (hover to see other rain measurements)
** Current wind speed in m/s (hover to see current wind gust speed)